Tracking 19176 objects as of 28-May-2018
HD Live streaming from Space Station
objects crossing your sky now

IABS R/B

Track IABS R/B now!


NORAD ID: 26054
Int'l Code: 2000-001C
Perigee: 35,481.2 km
Apogee: 35,601.4 km
Inclination: 13.2 °
Period: 1,423.2 minutes
Semi major axis: 41912 km
RCS: Unknown
Launch date: January 21, 2000
Source: United States (US)
Launch site: AIR FORCE EASTERN TEST RANGE (AFETR)

Note: This is a ROCKET BODY
aabbcc
Your satellite tracking list
Your tracking list is empty




NASA's NSSDC Master Catalog

Two Line Element Set (TLE):
1 26054U 00001C   18039.07614314 0.00000000  00000-0  00000-0 0    08
2 26054  13.2200  24.8775 0014333 288.3903  71.3447  1.01179114    08
Source of the keplerian elements: McCants